Regional Weather Roundup
Issued by NWS

Home | Current Version | Previous Version | Graphics & Text | Print | Product List | Glossary On
Versions: 1 2 3 4 5 6 7 8 9 10 11 12 13 14 15 16 17 18 19 20 21 22 23 24 25 26 27 28 29 30 31 32 33 34 35 36 37 38 39 40 41 42 43 44 45 46 47 48 49 50
000
ASUS43 KFSD 230202
RWRSD

WEATHER ROUNDUP FOR SOUTH DAKOTA
NATIONAL WEATHER SERVICE SIOUX FALLS SD
900 PM CDT WED MAR 22 2017

NOTE: "FAIR" INDICATES FEW OR NO CLOUDS BELOW 12,000 FEET WITH NO
SIGNIFICANT WEATHER AND/OR OBSTRUCTIONS TO VISIBILITY.


SDZ001>005-009-010-012>017-230300-
NORTHWEST AND NORTH CENTRAL SOUTH DAKOTA

CITY           SKY/WX    TMP DP  RH WIND       PRES   REMARKS
BUFFALO          N/A     53  39  59 NE7       29.70F
FAITH            N/A     52  37  56 SE15      29.76F
MOBRIDGE       CLEAR     42  27  55 SE21G29   29.85R
$$

SDZ012>016-024>037-041>051-057-063-072>074-230300-
SOUTHWEST AND SOUTH CENTRAL SOUTH DAKOTA

CITY           SKY/WX    TMP DP  RH WIND       PRES   REMARKS
RAPID CTY ARPT MOCLDY    51  41  68 N7        29.78S
PIERRE         CLOUDY    48  29  47 SE15      29.87R
CUSTER         CLOUDY    50  38  63 NW5       29.85F
ELLSWORTH AFB  PTCLDY    51  42  71 W6        29.78S
PHILIP         CLOUDY    57  37  47 SE10      29.77S
PINE RIDGE     CLEAR     58  38  47 S26G35    29.79S
SPEARFISH      FAIR      48  43  81 S6        29.79F
WINNER         FAIR      50  30  46 S14       29.92S
$$

SDZ004>011-016>023-039-040-230300-
NORTHEAST SOUTH DAKOTA

CITY           SKY/WX    TMP DP  RH WIND       PRES   REMARKS
ABERDEEN       PTCLDY    34  24  67 SE15      30.02F WCI  24
WATERTOWN      CLOUDY    34  24  67 SE16G25   30.07S WCI  24
BROOKINGS      CLOUDY    35  24  64 SE24G31   30.09F WCI  23
SISSETON         N/A     34  27  75 S22       30.11R WCI  22
$$

SDZ017-020-022-023-036>040-048>070-230300-
SOUTHEAST SOUTH DAKOTA

CITY           SKY/WX    TMP DP  RH WIND       PRES   REMARKS
SIOUX FALLS    CLOUDY    39  26  59 SE16G25   30.13F
HURON          PTCLDY    37  26  64 SE18G26   30.03S
CHAMBERLAIN    CLOUDY    44  29  57 E9        29.95S
MITCHELL       CLOUDY    40  28  62 SE22G30   30.03F
YANKTON        CLOUDY    43  27  52 SE17      30.09S
$$

ABBREVIATIONS USED IN REMARKS
   TC - TEMPERATURE IN CELSIUS
  WCI - WIND CHILL INDEX
   HX - HEAT INDEX
  VSB - VISIBILITY





USA.gov is the U.S. government's official web portal to all federal, state and local government web resources and services.